Location: Lewisville
(33.0462°N, 96.9942°W)
Time: 08:07:28
(UTC-06:00)

Envisat - Pass Details

Date: 19 February 2021
Orbit: 764 x 766 km, 98.2° (Epoch: 26 November)

Event Time Altitude Azimuth Distance (km) Brightness Sun altitude
Rises 06:26:57 0° 6° (N) 3,236 6.2 -9.1°
Reaches altitude 10° 06:29:18 10° 1° (N) 2,306 5.4 -8.6°
Maximum altitude 06:34:14 52° 286° (WNW) 941 3.1 -7.6°
Drops below altitude 10° 06:39:07 10° 211° (SSW) 2,292 5.3 -6.6°
Sets 06:41:28 0° 206° (SSW) 3,214 6.1 -6.1°
